Skip Page Navigation
NASA JPL Caltech
NASA Logo - Jet Propulsion Laboratory + View the NASA Portal
+ Near-Earth Object (NEO) Program
Search JPL
JPL Home Earth Solar System Stars & Galaxies Technology
JPL Solar System Dynamics
BODIES ORBITS EPHEMERIDES TOOLS PHYSICAL DATA DISCOVERY FAQ SITE MAP
JPL Small-Body Database Browser
Search: [ help ]  
134363 (1994 VG3)
Classification: Main-belt Asteroid          SPK-ID: 2134363
Ephemeris | Orbit Diagram | Orbital Elements | Physical Parameters | Discovery Circumstances | Close-Approach Data ]

[ show orbit diagram ]
Orbital Elements at Epoch 2457000.5 (2014-Dec-09.0) TDB
Reference: JPL 6 (heliocentric ecliptic J2000)
 Element Value Uncertainty (1-sigma)   Units 
e .3228990230059285 1.7288e-07  
a 2.550811198825949 3.2951e-08 AU
q 1.727156754852469 4.5943e-07 AU
i 8.38065624622282 7.3231e-06 deg
node 44.26518431263319 7.5219e-05 deg
peri 326.9454594436835 7.8534e-05 deg
M 349.6075744709438 3.6662e-05 deg
tp 2457043.456641532495
(2015-Jan-20.95664153)
0.00015231 JED
period 1488.044432790152
4.07
2.8833e-05
7.894e-08
d
yr
n .2419282597126374 4.6877e-09 deg/d
Q 3.37446564279943 4.359e-08 AU
  Orbit Determination Parameters
   # obs. used (total)      166  
   data-arc span      7212 days (19.75 yr)  
   first obs. used      1994-10-26  
   last obs. used      2014-07-25  
   planetary ephem.      DE431  
   SB-pert. ephem.      SB431-BIG16  
   condition code      0  
   fit RMS      .63093  
   data source      ORB  
   producer      Otto Matic  
   solution date      2014-Aug-13 16:33:35  

Additional Information
 Earth MOID = .734945 AU 
 T_jup = 3.351 
[ show covariance matrix ]

Ephemeris | Orbit Diagram | Orbital Elements | Physical Parameters | Discovery Circumstances | Close-Approach Data ]

Physical Parameter Table
Parameter Symbol Value Units Sigma Reference Notes
absolute magnitude H 16.2 mag n/a MPO302679  

134363 (1994 VG3)          Discovered 1994-Nov-07 by Ueda, S., Kaneda, H. at Kushiro (399)
Reference: 20060907/Numbers.arcLast Updated: 2006-09-10

[ show close-approach data ]
Alternate Designations
 1994 VG3 = 1998 UR33 
Ephemeris | Orbit Diagram | Orbital Elements | Physical Parameters | Discovery Circumstances | Close-Approach Data ]
ABOUT SSD CREDITS/AWARDS PRIVACY/COPYRIGHT GLOSSARY LINKS
FirstGov 2014-Sep-02 11:46 UT
(server date/time)  
NASA Home Page
Site Manager:   Donald K. Yeomans
Webmaster  Alan B. Chamberlin